Track DIRECTV 6 (TEMPO 2) now! DIRECTV 6 (TEMPO 2) is classified as:
1 24748U 97011A 21024.01444203 -.00000002 00000-0 00000-0 0 9993 2 24748 10.7009 35.6030 0029899 277.4455 262.0234 0.99027672 86973